Retour au catalogue

STARLINK-31104

ActifCommunicationsVLEO
NORAD 58672·PAYLOAD·🇺🇸 United States

Lancé Dec 29, 2023 depuis Cape Canaveral Space Force Station

Loading…

Prochains Passages (prochaines 24 heures)

TLE

FraisSource: CelesTrak SupGP

Époque: Sep 15, 2026, 03:20 UTC

1 58672C 23211F   26258.13937500  .00042162  00000+0  31329-3 0  2581
2 58672  42.9854  53.2376 0029045 308.8949 262.2027 15.71257234    18

Suivez STARLINK-31104 en temps réel avec AllMySat

Download on the App Store